Salina, KS

7:46 AM CST on December 18, 2014 (GMT -0600)
Marshall Army Air Field | Change Station
CLOSE
Current Station
Airport
Location: Ft Riley,
Elevation: 1063 ft
Nearby Weather Stations

Elev 1063 ft 39.06 °N, 96.76 °W | Updated 13 minutes ago

Overcast
Overcast
27 °F
Feels Like 20 °F
N
6
Wind Variable Wind from NE

Today
High -- | Low -- °F
--% Chance of Precip.
Yesterday
High -- | Low -- °F
Precip. -- in
7:43 AM 5:10 PM
Waning Crescent, 14% visible
Pressure 30.21 in
Visibility 4.0 miles
Clouds Overcast 1600 ft
Windchill 20 °F
Dew Point 27 °F
Humidity 100%
Rainfall 0.00 in
Snow Depth Not available.
UV 0 out of 12
Pollen .10 out of 12
Air Quality Not available.
Flu Activity Not available.
SPECI KFRI 181333Z AUTO 04005KT 4SM -SN BR OVC016 M03/M03 A3021 RMK AO2

More Conditions Fewer Conditions

Pressure 30.21 in
Visibility 4.0 miles
Clouds Overcast 1600 ft
Windchill 20 °F
Dew Point 27 °F
Humidity 100%
Rainfall 0.00 in
Snow Depth Not available.
UV 0 out of 12
Pollen .10 out of 12
Air Quality Not available.
Flu Activity Not available.
SPECI KFRI 181333Z AUTO 04005KT 4SM -SN BR OVC016 M03/M03 A3021 RMK AO2

More Conditions Fewer Conditions

10-Day Weather Forecast

Almanac

Astronomy

Dec. 18, 2014 Rise Set
Actual Time
Civil Twilight
Nautical Twilight
Astronomical Twilight
Moon
Length of Visible Light
Length of Day
Tomorrow will be .
, % of the Moon is Illuminated

Today's Extremes

State Highs State Lows

Community

WunderPhotos

Upload Photos

1,778,928 photos uploaded!

WunderBlogs® & News

Nearby

Air Quality

  Air Quality AQ Index Pollutant
Not available.

Snow Depth

Station Depth Elevation

Earthquake Activity

City Distance Mag. Time & Date
Minimum magnitude displayed is 2.5.

Coastal Water Temperatures

Place Temperature

Nearby Weather Stations